TimeEST,TemperatureF,Dew PointF,Humidity,Sea Level PressureIn,VisibilityMPH,Wind Direction,Wind SpeedMPH,Gust SpeedMPH,PrecipitationIn,Events,Conditions,WindDirDegrees,DateUTC
12:53 AM,18.0,6.1,60,30.30,10.0,NNW,12.7,-,N/A,,Overcast,330,2012-02-12 05:53:00
1:53 AM,17.1,7.0,65,30.30,10.0,NNW,6.9,-,0.00,,Overcast,330,2012-02-12 06:53:00
2:53 AM,18.0,8.1,65,30.29,9.0,West,5.8,-,N/A,,Overcast,270,2012-02-12 07:53:00
3:53 AM,18.0,8.1,65,30.29,10.0,West,12.7,-,0.00,,Overcast,270,2012-02-12 08:53:00
4:53 AM,18.0,6.1,60,30.31,10.0,West,11.5,21.9,N/A,,Overcast,270,2012-02-12 09:53:00
5:53 AM,17.1,5.0,59,30.32,10.0,WNW,12.7,-,N/A,,Mostly Cloudy,290,2012-02-12 10:53:00
6:53 AM,16.0,3.0,57,30.34,10.0,WNW,6.9,-,N/A,,Scattered Clouds,300,2012-02-12 11:53:00
7:53 AM,16.0,5.0,62,30.36,10.0,WSW,9.2,-,N/A,,Partly Cloudy,250,2012-02-12 12:53:00
8:53 AM,19.0,6.1,57,30.38,10.0,WSW,16.1,19.6,N/A,,Partly Cloudy,240,2012-02-12 13:53:00
9:53 AM,21.0,6.1,53,30.37,10.0,WSW,15.0,27.6,N/A,,Partly Cloudy,250,2012-02-12 14:53:00
10:53 AM,23.0,7.0,50,30.36,10.0,WSW,10.4,20.7,N/A,,Partly Cloudy,250,2012-02-12 15:53:00
11:53 AM,26.1,8.1,47,30.35,10.0,West,8.1,-,N/A,,Clear,260,2012-02-12 16:53:00
12:53 PM,28.0,9.0,45,30.31,10.0,West,10.4,20.7,N/A,,Clear,260,2012-02-12 17:53:00
1:53 PM,30.9,10.0,42,30.29,10.0,West,11.5,-,N/A,,Clear,260,2012-02-12 18:53:00
2:53 PM,33.1,10.9,40,30.28,10.0,West,10.4,-,N/A,,Clear,280,2012-02-12 19:53:00
3:53 PM,34.0,10.9,38,30.27,10.0,WSW,16.1,-,N/A,,Clear,240,2012-02-12 20:53:00
4:53 PM,33.1,10.9,40,30.27,10.0,WSW,9.2,-,N/A,,Clear,240,2012-02-12 21:53:00
5:53 PM,32.0,12.0,44,30.28,10.0,West,12.7,-,N/A,,Clear,260,2012-02-12 22:53:00
6:53 PM,28.0,12.9,53,30.31,10.0,SW,5.8,-,N/A,,Clear,230,2012-02-12 23:53:00
7:53 PM,28.0,12.0,51,30.32,10.0,WSW,5.8,-,N/A,,Clear,250,2012-02-13 00:53:00
8:53 PM,25.0,12.9,60,30.32,10.0,WSW,5.8,-,N/A,,Clear,250,2012-02-13 01:53:00
9:53 PM,26.1,12.9,58,30.32,10.0,WSW,6.9,-,N/A,,Clear,250,2012-02-13 02:53:00
10:53 PM,23.0,12.9,65,30.32,10.0,SSW,4.6,-,N/A,,Clear,210,2012-02-13 03:53:00
11:53 PM,23.0,12.9,65,30.31,10.0,SW,3.5,-,N/A,,Clear,220,2012-02-13 04:53:00